Wind_Speed
24 24 24 24 25 25 27 27 28 27 27 26 27 27 27 27 27 28 29 28 29 29 29 30 31 32 32 33 33 34 34 34 35 36 37 38 38 39 40 42 43 44 45 45
24 23 24 24 24 24 25 26 26 26 25 25 27 28 28 28 28 28 29 29 29 29 29 30 30 31 31 32 33 34 34 34 34 34 35 35 36 37 38 39 40 41 41 43
24 23 24 23 21 23 24 24 25 25 24 25 27 28 27 27 28 28 28 28 28 28 29 29 29 29 30 32 32 33 32 32 33 33 33 34 34 35 35 36 37 38 38 39
25 24 25 22 21 22 23 23 24 24 24 25 26 27 27 27 27 28 28 28 28 28 28 28 28 29 30 31 31 31 31 31 31 32 31 31 31 31 31 31 32 34 34 34
25 25 25 23 22 23 24 24 23 24 25 26 27 27 26 27 27 26 27 27 27 27 27 27 27 28 29 30 30 29 28 28 29 29 29 28 28 27 28 28 29 30 31 31
25 25 25 24 23 24 25 25 24 24 25 25 26 26 26 26 27 26 26 26 27 26 26 26 27 27 28 28 28 28 27 27 27 27 26 25 25 26 26 26 26 28 29 29
24 26 25 24 24 24 24 24 24 24 25 25 25 25 25 26 26 26 27 27 26 26 26 26 26 27 27 27 27 27 27 27 26 25 24 24 24 25 24 24 24 25 26 27
24 25 25 24 24 24 23 24 24 24 24 25 25 25 25 25 26 26 26 26 26 26 27 27 26 26 26 26 26 27 26 26 25 24 24 24 24 24 24 23 23 23 24 25
23 23 23 24 24 24 23 23 23 23 24 25 25 25 25 25 26 26 26 26 27 26 26 26 26 26 26 26 26 26 25 25 25 25 24 24 24 24 23 23 23 22 22 23
23 22 22 23 24 24 24 23 23 24 25 25 25 25 25 26 26 26 26 26 26 25 25 25 25 25 25 24 24 24 24 24 24 24 24 24 23 22 21 21 21 21 21 21
23 22 23 23 24 25 25 25 24 25 25 25 25 25 25 25 25 25 25 25 25 25 24 24 24 24 24 23 23 24 24 24 24 23 23 23 22 21 21 21 20 20 20 21
22 23 23 23 24 24 25 25 25 25 25 25 25 25 25 25 25 25 25 25 24 24 23 23 23 23 24 23 23 23 23 23 23 23 22 21 20 20 20 20 20 19 20 20
22 23 23 23 24 24 25 25 25 25 25 25 24 24 24 24 24 24 24 23 23 23 23 23 23 23 23 22 22 22 22 22 22 22 21 20 19 19 19 19 19 19 19 19
22 22 23 22 23 23 23 23 24 24 24 24 23 23 22 22 22 22 22 21 22 22 22 22 22 22 22 22 21 21 21 21 20 20 19 19 19 19 19 18 18 19 19 19
22 23 22 22 22 22 22 22 22 22 22 22 22 22 21 21 21 20 21 21 22 22 22 22 22 22 22 21 21 20 20 19 19 18 18 17 18 18 18 18 18 19 19 19
22 22 21 21 21 21 21 21 21 20 20 21 21 21 20 20 20 20 21 21 22 22 21 21 21 21 20 20 19 19 18 18 17 17 17 17 17 16 17 17 18 18 18 17
22 21 20 20 20 20 19 19 19 19 19 20 19 19 18 18 18 19 19 19 19 19 18 18 18 17 17 17 17 17 17 17 17 17 17 17 17 17 17 17 17 16 16 15
21 20 19 18 18 18 18 18 17 17 18 17 17 17 17 17 17 17 17 17 17 17 17 16 16 15 15 15 15 16 16 17 17 16 16 17 17 17 16 16 15 15 14 14
18 18 17 16 15 15 15 14 15 15 15 15 16 16 16 15 15 15 15 15 15 15 15 15 15 15 15 15 15 15 16 16 16 15 15 15 15 15 15 14 14 13 13 13
15 15 15 14 14 14 13 13 13 14 14 15 15 15 15 15 15 15 15 14 14 14 14 15 15 15 15 15 16 16 15 15 15 14 14 14 14 14 13 13 13 12 12 12
14 14 14 14 14 14 14 13 13 14 14 15 15 15 15 15 15 14 14 14 14 14 14 14 15 15 15 15 15 15 14 14 14 13 13 14 14 13 13 13 12 12 12 12
14 14 14 14 14 14 13 13 13 14 14 14 15 15 15 15 15 14 14 14 14 15 15 15 15 15 14 14 14 14 13 13 13 13 13 13 13 13 12 12 12 13 13 13
14 13 13 13 14 14 14 14 14 14 14 15 16 16 15 14 14 14 14 14 14 15 15 15 15 14 14 13 13 13 13 13 12 12 12 12 12 12 12 12 13 13 13 13
13 13 13 13 13 14 14 14 15 15 16 16 16 15 15 14 14 14 14 14 15 15 15 15 15 14 14 13 13 13 13 13 13 13 13 13 12 12 12 12 13 13 13 13
13 14 14 14 14 14 15 15 16 16 17 16 15 14 14 15 15 15 15 16 16 16 15 15 14 13 13 13 13 13 13 13 13 13 13 13 12 12 13 13 13 12 12 13
14 14 14 14 14 15 15 15 16 16 16 15 14 14 15 15 15 15 16 16 16 16 15 15 14 14 14 14 14 14 14 14 13 13 13 13 13 13 13 13 13 13 13 13
14 14 14 14 14 15 15 16 15 15 14 14 14 14 14 15 15 15 15 15 14 14 14 14 14 14 14 14 14 14 14 14 14 14 13 13 13 13 13 13 13 13 13 12
Wind_Direction
277 278 276 274 272 271 272 274 275 274 272 269 270 273 274 276 277 277 279 280 281 280 279 278 278 278 279 280 279 279 280 280 280 280 278 276 275 272 270 268 267 267 265 266
278 277 277 276 273 273 274 275 276 274 271 270 271 274 276 277 278 277 279 281 283 282 280 280 281 280 280 281 282 282 283 283 282 282 280 278 277 275 272 270 269 268 267 266
278 276 276 275 275 274 274 275 276 275 274 273 273 275 278 280 278 278 279 281 284 283 282 282 281 282 283 284 285 285 284 284 283 283 282 280 279 277 274 272 270 269 268 268
279 277 275 277 276 276 276 275 275 276 276 276 276 277 278 280 279 278 279 280 283 284 284 283 283 285 287 287 286 286 286 286 286 285 285 284 282 280 278 276 273 271 270 269
279 279 279 278 279 278 277 276 276 277 277 276 277 278 279 280 281 281 281 281 283 284 285 286 286 286 288 289 288 289 289 288 288 288 286 286 285 284 282 280 277 274 272 271
280 280 280 282 282 281 278 277 278 278 278 278 278 278 280 280 281 283 284 284 284 282 283 285 287 289 290 290 289 289 289 289 290 289 288 287 287 287 285 283 279 275 274 273
281 281 281 282 281 280 279 280 280 278 278 279 280 281 281 281 282 282 284 284 284 282 282 285 287 290 291 291 290 290 289 289 288 289 289 290 290 289 288 286 282 279 277 275
283 282 281 280 280 279 279 279 280 280 279 280 281 281 282 283 282 282 283 284 284 283 283 284 287 290 291 291 291 291 290 289 288 288 289 291 291 290 289 285 284 282 280 278
283 284 282 280 280 280 278 280 279 279 280 281 280 280 281 282 282 282 283 283 283 283 283 284 286 288 289 291 292 291 290 290 289 287 288 289 290 290 288 285 284 285 283 281
283 284 282 281 280 280 279 280 281 281 282 283 281 280 280 282 282 282 283 283 284 284 284 285 287 287 288 290 290 290 290 290 289 288 288 289 290 289 287 286 286 286 285 282
283 284 283 283 282 280 279 279 282 282 282 283 281 280 281 282 282 282 283 284 286 286 285 286 287 289 289 290 291 290 290 291 290 290 290 288 287 287 287 285 286 287 286 284
283 283 283 284 283 280 278 280 282 284 284 283 282 281 282 282 281 282 284 285 286 286 285 286 287 288 290 290 290 290 290 290 290 291 290 288 286 286 286 286 285 285 287 286
284 283 283 283 282 281 281 281 283 284 285 285 282 280 281 281 281 282 283 283 285 286 286 287 287 288 289 289 289 289 290 290 291 290 289 286 285 285 286 287 287 289 290 289
283 283 282 281 281 282 282 282 284 285 286 286 284 282 282 281 282 282 282 284 286 287 289 289 288 288 289 290 290 289 289 290 291 290 288 286 285 285 286 287 288 289 290 290
281 283 283 281 280 281 282 284 286 286 287 286 285 284 283 282 281 282 283 285 286 288 289 289 289 289 289 290 289 289 289 290 290 289 288 288 287 286 286 287 288 290 290 290
283 283 283 281 280 281 283 284 285 286 287 287 287 286 284 283 282 282 284 285 287 288 289 289 289 288 288 287 288 288 288 288 289 289 288 290 290 290 290 290 291 291 290 289
283 282 282 281 281 282 283 284 285 286 289 289 286 285 286 287 287 287 288 287 288 288 287 289 289 288 287 287 287 288 288 289 289 289 288 289 290 291 292 293 293 294 294 292
283 282 282 282 282 283 285 285 287 289 291 292 290 288 287 288 288 289 289 289 289 289 289 289 290 291 291 291 291 292 292 292 291 289 288 288 289 290 290 292 294 295 295 294
283 282 281 280 280 283 285 286 289 291 293 293 293 293 292 291 292 292 292 292 291 290 290 290 290 290 291 294 296 297 296 294 292 289 288 288 289 289 289 290 291 292 293 295
282 280 279 279 280 284 286 289 292 294 295 295 294 293 293 292 293 294 294 294 294 293 290 289 290 292 291 291 294 297 298 297 294 290 288 288 289 289 288 289 290 290 291 293
280 280 281 281 282 285 286 289 294 296 298 299 297 294 292 292 293 292 292 293 294 294 293 292 292 293 292 292 293 295 296 296 294 291 288 288 288 287 285 285 287 288 290 292
281 283 283 282 283 285 287 289 291 293 296 299 300 298 295 292 291 290 290 290 291 292 293 294 294 294 294 294 293 294 295 295 294 293 290 288 288 287 284 284 286 288 290 291
282 283 281 280 281 283 285 288 291 291 293 296 299 298 295 292 289 289 289 289 290 292 293 293 294 294 293 295 295 293 293 294 292 290 290 290 288 287 286 285 286 288 288 288
281 279 280 281 281 281 283 286 288 289 292 295 296 295 294 292 291 290 289 289 291 293 294 294 294 293 293 292 293 293 293 292 290 289 289 289 288 287 287 286 287 287 287 286
282 280 280 281 282 283 285 287 288 290 292 293 291 291 293 295 293 291 289 288 288 291 293 293 293 292 292 292 292 293 293 292 290 289 289 289 289 290 289 289 287 285 285 286
283 283 282 282 283 284 285 287 288 289 290 287 287 289 292 294 295 293 292 290 289 289 289 289 288 288 289 290 292 292 292 292 290 287 286 286 287 289 290 289 287 286 285 285
286 284 284 284 284 286 287 287 288 288 286 286 286 289 293 295 297 296 294 292 291 291 290 289 289 289 288 290 291 290 291 291 288 285 284 283 284 287 289 289 288 286 284 283
Height
5587 5587 5587 5587 5587 5586 5585 5585 5585 5586 5586 5587 5586 5585 5585 5584 5583 5582 5581 5580 5579 5577 5576 5575 5574 5573 5572 5570 5568 5567 5565 5563 5562 5560 5558 5557 5555 5555 5555 5555 5556 5556 5558 5559
5581 5581 5580 5580 5580 5580 5579 5579 5578 5578 5579 5579 5578 5578 5577 5576 5575 5574 5573 5572 5571 5569 5568 5567 5565 5564 5563 5561 5559 5558 5556 5554 5552 5550 5548 5546 5545 5544 5543 5543 5544 5544 5546 5547
5575 5575 5573 5574 5575 5574 5574 5573 5573 5572 5573 5572 5571 5570 5570 5569 5568 5567 5566 5565 5563 5562 5561 5559 5558 5556 5555 5553 5551 5549 5547 5545 5543 5541 5539 5537 5535 5534 5533 5533 5533 5534 5535 5536
5568 5569 5568 5572 5569 5569 5568 5567 5567 5566 5566 5565 5564 5564 5563 5562 5561 5560 5559 5558 5556 5555 5553 5552 5550 5549 5547 5545 5542 5540 5538 5537 5535 5532 5530 5528 5526 5525 5524 5524 5524 5524 5525 5525
5562 5561 5561 5564 5564 5562 5561 5561 5561 5560 5559 5559 5558 5557 5557 5555 5554 5553 5552 5551 5549 5548 5546 5545 5543 5541 5539 5537 5534 5532 5531 5529 5527 5525 5523 5521 5519 5518 5516 5516 5515 5515 5516 5516
5556 5555 5555 5559 5557 5555 5555 5555 5555 5554 5553 5552 5551 5551 5551 5549 5547 5546 5545 5543 5542 5541 5539 5538 5536 5534 5532 5529 5527 5525 5524 5522 5520 5518 5516 5514 5513 5511 5510 5509 5508 5508 5508 5508
5550 5549 5549 5551 5550 5549 5550 5550 5548 5547 5546 5545 5545 5544 5544 5542 5541 5540 5538 5537 5535 5534 5533 5531 5529 5527 5524 5522 5521 5519 5517 5515 5513 5511 5510 5508 5506 5505 5504 5502 5502 5501 5501 5501
5544 5543 5545 5544 5543 5543 5543 5542 5541 5540 5539 5539 5538 5537 5536 5535 5534 5533 5531 5530 5528 5527 5525 5524 5522 5520 5518 5516 5514 5512 5511 5509 5507 5505 5504 5502 5501 5499 5498 5496 5496 5495 5494 5494
5539 5540 5538 5537 5536 5535 5535 5535 5534 5533 5533 5532 5531 5530 5529 5528 5527 5526 5525 5523 5521 5520 5518 5517 5516 5514 5512 5510 5508 5506 5504 5502 5501 5499 5498 5496 5495 5493 5492 5491 5490 5489 5488 5488
5533 5533 5532 5530 5529 5529 5528 5528 5527 5527 5526 5524 5523 5523 5522 5521 5520 5519 5517 5516 5514 5513 5511 5510 5509 5507 5505 5504 5502 5500 5498 5496 5495 5493 5492 5490 5489 5487 5486 5485 5484 5483 5482 5482
5526 5526 5525 5524 5523 5522 5522 5521 5520 5519 5518 5517 5516 5515 5515 5514 5512 5511 5510 5508 5507 5506 5504 5503 5502 5501 5499 5497 5495 5494 5492 5490 5489 5487 5486 5484 5483 5482 5480 5479 5479 5478 5477 5476
5521 5520 5518 5518 5516 5516 5515 5514 5513 5512 5511 5510 5509 5508 5507 5506 5505 5504 5502 5501 5500 5499 5497 5496 5495 5494 5492 5491 5489 5487 5486 5484 5483 5481 5480 5479 5477 5476 5475 5474 5473 5472 5471 5470
5514 5513 5512 5511 5510 5509 5508 5507 5506 5505 5504 5503 5502 5501 5500 5499 5498 5496 5495 5494 5493 5492 5491 5490 5489 5487 5486 5485 5483 5481 5480 5478 5477 5475 5474 5473 5472 5471 5470 5469 5467 5466 5465 5464
5508 5507 5506 5505 5503 5502 5501 5500 5500 5498 5497 5496 5495 5494 5493 5492 5491 5490 5489 5488 5487 5486 5485 5483 5482 5481 5480 5479 5477 5475 5474 5472 5471 5470 5468 5467 5466 5465 5464 5463 5463 5461 5460 5459
5502 5500 5499 5498 5497 5496 5495 5494 5493 5492 5491 5489 5488 5487 5486 5486 5485 5484 5483 5482 5481 5480 5478 5477 5476 5475 5474 5472 5471 5469 5468 5467 5466 5464 5463 5462 5461 5460 5459 5458 5457 5456 5455 5454
5495 5494 5493 5492 5491 5490 5489 5488 5487 5486 5484 5483 5482 5481 5480 5479 5479 5478 5477 5476 5475 5473 5472 5470 5469 5468 5467 5466 5465 5463 5462 5461 5460 5459 5458 5457 5456 5455 5454 5453 5452 5451 5449 5448
5489 5488 5487 5486 5485 5484 5483 5482 5481 5480 5479 5478 5477 5476 5475 5474 5473 5472 5471 5469 5468 5467 5466 5464 5463 5462 5461 5460 5459 5458 5457 5456 5455 5454 5453 5452 5451 5450 5449 5448 5447 5446 5444 5443
5483 5482 5481 5481 5480 5479 5478 5477 5476 5475 5474 5473 5471 5471 5470 5469 5467 5466 5465 5464 5463 5462 5460 5459 5458 5457 5456 5455 5454 5453 5452 5451 5450 5449 5448 5447 5447 5446 5445 5443 5442 5441 5440 5439
5477 5476 5476 5475 5475 5474 5473 5472 5471 5470 5469 5468 5467 5466 5465 5463 5462 5461 5460 5459 5458 5457 5456 5455 5454 5453 5452 5451 5449 5448 5447 5446 5445 5444 5443 5443 5442 5441 5440 5439 5438 5437 5436 5435
5471 5471 5471 5471 5470 5470 5469 5468 5467 5466 5465 5464 5463 5462 5460 5459 5458 5457 5456 5455 5454 5453 5452 5451 5450 5449 5448 5446 5445 5444 5443 5441 5440 5439 5439 5438 5437 5436 5435 5434 5434 5433 5432 5431
5467 5467 5467 5466 5466 5465 5465 5464 5463 5462 5461 5460 5459 5457 5456 5455 5454 5453 5452 5451 5450 5449 5448 5447 5446 5444 5443 5442 5441 5440 5438 5437 5436 5435 5434 5434 5433 5432 5431 5430 5430 5429 5428 5428
5463 5462 5462 5462 5462 5461 5461 5460 5459 5459 5458 5456 5455 5453 5452 5451 5450 5449 5448 5447 5446 5445 5444 5442 5441 5440 5439 5438 5436 5435 5434 5433 5432 5431 5430 5429 5429 5428 5427 5426 5426 5425 5424 5424
5459 5459 5458 5458 5458 5457 5457 5456 5456 5455 5453 5452 5451 5449 5448 5447 5446 5445 5444 5443 5441 5440 5439 5438 5437 5436 5434 5433 5432 5431 5430 5429 5428 5427 5426 5425 5425 5424 5423 5423 5422 5421 5421 5420
5455 5455 5454 5454 5454 5453 5453 5452 5451 5450 5449 5448 5446 5445 5444 5442 5441 5440 5439 5438 5437 5436 5435 5433 5432 5431 5430 5429 5428 5427 5426 5425 5424 5423 5423 5422 5421 5420 5419 5419 5418 5417 5417 5416
5451 5451 5450 5450 5449 5449 5448 5447 5446 5446 5444 5443 5442 5441 5439 5438 5437 5436 5435 5434 5433 5432 5430 5429 5428 5427 5426 5425 5424 5423 5422 5421 5420 5419 5418 5418 5417 5416 5415 5415 5414 5413 5412 5412
5447 5446 5445 5445 5444 5444 5443 5442 5441 5440 5439 5438 5437 5436 5435 5434 5432 5431 5430 5429 5428 5427 5426 5424 5423 5422 5422 5421 5420 5419 5418 5417 5416 5415 5414 5413 5413 5412 5411 5410 5409 5408 5408 5407
5442 5442 5441 5440 5440 5439 5438 5437 5436 5435 5434 5433 5433 5432 5431 5429 5428 5427 5425 5424 5423 5422 5421 5420 5419 5418 5417 5416 5415 5414 5413 5412 5411 5410 5410 5409 5408 5408 5407 5406 5405 5404 5403 5402